World > North America > United States > Texas

Hourly Wake Village, TX Regional Weather

Feedback E-mail the Weather

Quick WX

Wake Village, TX Weather Maps

°F °C°F °C
Wake Village Weather Map
UTC Time: 7/2/2022, 17:35
Your Time:

Wake Village, TX Regional Weather

Expires:202207021800;;560886
ASUS44 KFWD 021715
RWRTX 
NORTH TEXAS HOURLY WEATHER ROUNDUP
NATIONAL WEATHER SERVICE FORT WORTH TX
1200 PM CDT SAT JUL 02 2022

NOTE: "FAIR" INDICATES FEW OR NO CLOUDS BELOW 12,000 FEET WITH NO
SIGNIFICANT WEATHER AND/OR OBSTRUCTIONS TO VISIBILITY.


TXZ095>097-106>112-122>126-135>138-148>153-164>167-021800-
EAST TEXAS
  
CITY           SKY/WX    TMP DP  RH WIND       PRES   REMARKS
PARIS          PTSUNNY   86  71  60 CALM      29.99R HX  91           
SULPHUR SPRNGS PTSUNNY   89  67  47 CALM      29.99S HX  92           
MOUNT PLEASANT FAIR      83  73  73 E5        29.99R                  
GILMER         FAIR      78  71  77 CALM      30.00S                  
MINEOLA        FAIR      84  73  70 SE5       29.99R HX  91           
TYLER          PTSUNNY   82  75  79 SE5       29.99S                  
LONGVIEW       LGT RAIN  76  74  93 CALM      29.99S FOG              
MARSHALL       PTSUNNY   75  73  91 CALM      30.01F                  
ATHENS         PTSUNNY   88  73  62 CALM      29.96S HX  96           
PALESTINE      FAIR      90  73  58 VRB3      29.96F HX  98           
JACKSONVILLE   CLOUDY    79  76  91 CALM      30.02S                  
HENDERSON      LGT RAIN  78  72  81 CALM      30.02R                  
CENTER         CLOUDY    77  73  88 CALM      30.02R                  
NACOGDOCHES    LGT RAIN  79  79 100 N7        30.01R FOG              
LUFKIN         FAIR      84  77  79 S3        29.99F HX  94           
$$

SUPPLEMENTAL OBSERVATIONS (NWS FORT WORTH AREA)
  
CITY           SKY/WX    TMP DP  RH WIND       PRES   REMARKS
CADDO GRASSLND   N/A     88  73  62 NW3         N/A  HX  96           
LBJ GRASSLAND    N/A     93  70  46 S5          N/A  HX  99           
POSSUM KINGDOM   N/A     97  64  34 SE6G14      N/A  HX  99           
GRANBURY         N/A     97  64  34 S8          N/A  HX  99           
COMANCHE         N/A     95  68  41 S7          N/A  HX  99           
MCGREGOR         N/A     93  70  46 SW5         N/A  HX  99           
TEMPLE           N/A     90  72  55 S10         N/A  HX  96           
LAKE LIMESTONE   N/A     91  79  66 S8          N/A  HX 107           
$$

SUPPLEMENTAL OBSERVATIONS (NWS NORMAN AREA)
  
CITY           SKY/WX    TMP DP  RH WIND       PRES   REMARKS
GOODLETT         N/A     96  63  33 SW8       29.93F HX  97           
ODELL            N/A     94  68  42 S8        29.95F HX  99           
CROWELL          N/A     98  65  33 S7        29.94F HX 101           
KNOX CITY        N/A     95  66  37 S5        29.95S HX  98           
SEYMOUR          N/A     96  67  37 W5        29.94F HX 100           
$$

SUPPLEMENTAL OBSERVATIONS (NWS SAN ANGELO AREA)
  
CITY           SKY/WX    TMP DP  RH WIND       PRES   REMARKS
WEINERT          N/A     96  65  36 CALM      29.95F HX  99           
HASKELL          N/A     94  66  39 CALM      29.95S HX  97           
THROCKMORTON     N/A     96  66  37 CALM      29.95S HX  99           
STAMFORD         N/A     97  65  35 S6        29.96S HX  99           
CLYDE            N/A     94  63  35 E6        30.01S HX  95           
HAMBY            N/A     97  59  28 S7          N/A  HX  96           
$$

SUPPLEMENTAL OBSERVATIONS (NWS SHREVEPORT AREA)
  
CITY           SKY/WX    TMP DP  RH WIND       PRES   REMARKS
TEXARKANA        N/A     84  73  70 S2          N/A  HX  91           
CADDO LAKE       N/A     79  75  89 CALM        N/A                   
LUFKIN           N/A     86  77  74 MISG        N/A  HX  97           
N SABINE NF      N/A     75  72  88 MISG        N/A                   
$$

SUPPLEMENTAL OBSERVATIONS ARE A COLLECTION OF AUTOMATED INSTRUMENTS
THAT ARE MAINTAINED BY A VARIETY OF FEDERAL AND STATE AGENCIES. 
CERTAIN ELEMENTS...SUCH AS HUMIDITY VALUES AND SUSTAINED WIND 
SPEEDS...MAY BE APPROXIMATED.

  

SKY/WX - Weather  TMP - Temperature  DP - Dew Point  RH - Humidity
WIND - Wind Direction/Speed PRES - Barometric Pressure VSB - Visibility
WCI - Wind Chill Index E13G22 Wind - East Wind 13 mph/Gusts of 22 mph

Trending Headlines

Wake Village Radar Loop



Wake Village Quick Facts


National Two Day Weather Forecast


E-mail the Wake Village Weather Forecast

Voice your opinion or tell us about page issues...